This is the latest recevied weather packets stored in our database for station/object W4CKA. If no packets are shown the sender has not sent any weather packets the latest 10 day(s).
| Time | Temp. | Humidity | Pressure | Rain* | Wind** | Luminosity | Snow |
|---|---|---|---|---|---|---|---|
| 1787702079 | 21.67° C | 83% | 1059.7 hPa | 0 mm | - | 7 W/m² | - |
| 1787701476 | 22.78° C | 74% | 1059.7 hPa | 0 mm | - | 12 W/m² | - |
| 1787700874 | 23.33° C | 73% | 1059.7 hPa | 0 mm | - | 16 W/m² | - |
| 1787700271 | 23.89° C | 72% | 1059.7 hPa | 0 mm | - | 24 W/m² | - |
| 1787699668 | 24.44° C | 73% | 1059.7 hPa | 0 mm | - | 26 W/m² | - |
| 1787699065 | 25.56° C | 65% | 1059.8 hPa | 0 mm | - | 32 W/m² | - |
| 1787698462 | 26.67° C | 63% | 1059.8 hPa | 0 mm | - | 87 W/m² | - |
| 1787697859 | 26.67° C | 60% | 1059.8 hPa | 0 mm | - | 98 W/m² | - |
| 1787697256 | 26.67° C | 62% | 1059.7 hPa | 0 mm | - | 152 W/m² | - |
| 1787696653 | 26.67° C | 59% | 1059.6 hPa | 0 mm | - | 148 W/m² | - |
| 1787696049 | 27.78° C | 58% | 1059.5 hPa | 0 mm | - | 166 W/m² | - |
| 1787695445 | 27.78° C | 59% | 1059.4 hPa | 0 mm | - | 160 W/m² | - |
| 1787694844 | 29.44° C | 54% | 1059.2 hPa | 0 mm | - | 221 W/m² | - |
| 1787694239 | 28.33° C | 57% | 1059.4 hPa | 0 mm | - | 236 W/m² | - |
| 1787693637 | 27.22° C | 57% | 1059.4 hPa | 0 mm | - | 273 W/m² | - |
| 1787693034 | 30° C | 56% | 1059.5 hPa | 0 mm | - | 323 W/m² | - |
| 1787692431 | 27.78° C | 54% | 1059.5 hPa | 0 mm | - | 290 W/m² | - |
| 1787691830 | 27.78° C | 61% | 1059.6 hPa | 0 mm | - | 393 W/m² | - |
| 1787691228 | 28.89° C | 53% | 1059.6 hPa | 0 mm | - | 421 W/m² | - |
| 1787690624 | 27.22° C | 55% | 1059.8 hPa | 0 mm | - | 443 W/m² | - |
| 1787690021 | 27.78° C | 57% | 1059.7 hPa | 0 mm | - | 384 W/m² | - |
| 1787689417 | 28.33° C | 52% | 1059.8 hPa | 0 mm | - | 428 W/m² | - |
| 1787688814 | 28.89° C | 53% | 1059.9 hPa | 0 mm | - | 475 W/m² | - |
| 1787688209 | 28.89° C | 54% | 1060 hPa | 0 mm | - | 539 W/m² | - |
| 1787687605 | 28.89° C | 51% | 1060.1 hPa | 0 mm | - | 581 W/m² | - |
* Rain latest hour (hover to see other rain measurements)
** Current wind speed in m/s (hover to see current wind gust speed)